Location: Days
(41.3591°N, 106.7339°W)
Time: 02:52:17
(UTC+00:00)

M-CUBED/EXP-1 PRIME - Visible Passes

Search period start: 29 June 2022 00:00
Search period end: 09 July 2022 00:00
Orbit: 423 x 634 km, 101.7° (Epoch: 28 June)

Date Brightness Start Highest point End Pass type
(mag) Time Alt. Az. Time Alt. Az. Time Alt. Az.
29 Jun ? 08:29:17 35° NW 08:29:17 35° NW 08:31:23 10° NNW visible
30 Jun ? 08:18:02 44° N 08:18:02 44° N 08:20:24 10° NNW visible
01 Jul ? 08:06:46 41° NNE 08:06:46 41° NNE 08:09:19 10° N visible
02 Jul ? 07:55:31 32° NE 07:55:31 32° NE 07:58:07 10° N visible
03 Jul ? 07:44:14 23° ENE 07:44:14 23° ENE 07:46:50 10° N visible
03 Jul ? 09:19:29 14° WNW 09:19:29 14° WNW 09:20:18 10° NW visible
04 Jul ? 07:32:57 16° ENE 07:33:10 17° ENE 07:35:23 10° NNE visible
04 Jul ? 09:08:12 20° WNW 09:08:12 20° WNW 09:09:42 10° NW visible
05 Jul ? 07:21:39 12° ENE 07:22:14 12° ENE 07:23:35 10° NE visible
05 Jul ? 08:56:54 28° WNW 08:56:54 28° WNW 08:58:55 10° NNW visible
06 Jul ? 08:45:36 40° NW 08:45:36 40° NW 08:48:00 10° NNW visible
07 Jul ? 08:34:17 51° N 08:34:17 51° N 08:36:58 10° NNW visible
08 Jul ? 08:22:58 47° NNE 08:22:58 47° NNE 08:25:51 10° N visible
